Location: LDNL
(36.4545°S, 141.6685°E)
Time: 18:58:09
(UTC+11:00)

Vanguard 1 Rocket - All Passes

Search period start: 28 January 2022 00:00
Search period end: 07 February 2022 00:00
Orbit: 651 x 4225 km, 34.3° (Epoch: 27 January)

Date Brightness Start Highest point End Pass type
(mag) Time Alt. Az. Time Alt. Az. Time Alt. Az.
28 Jan - 01:03:38 10° NW 01:08:03 35° NNE 01:14:35 10° E visible
28 Jan - 03:26:37 10° W 03:32:56 78° N 03:45:15 10° E visible
28 Jan - 05:50:43 10° W 05:59:54 68° NNW 06:18:20 10° ENE visible
28 Jan - 08:16:21 10° W 08:28:44 40° NNW 08:49:06 10° NNE daylight
28 Jan - 10:49:37 10° WNW 10:58:50 15° NW 11:09:38 10° NNW daylight
28 Jan - 23:54:33 10° N 23:57:33 17° NE 00:01:04 10° ENE night (unlit)
29 Jan - 02:16:17 10° WNW 02:21:34 65° NNE 02:30:52 10° E visible
29 Jan - 04:40:02 10° W 04:47:33 75° N 05:02:48 10° ENE visible
29 Jan - 07:04:43 10° W 07:15:22 50° NNW 07:35:01 10° NE daylight
29 Jan - 09:33:06 10° W 09:44:55 23° NW 10:01:09 10° N daylight
30 Jan - 01:06:10 10° NW 01:10:39 44° NNE 01:17:23 10° E visible
30 Jan - 03:29:33 10° W 03:35:44 78° N 03:47:43 10° E visible
30 Jan - 05:53:40 10° W 06:02:34 60° NNW 06:20:08 10° NE visible
30 Jan - 08:19:47 10° W 08:31:15 32° NNW 08:49:23 10° NNE daylight
30 Jan - 23:56:27 10° NNW 00:00:03 24° NNE 00:04:26 10° E night (unlit)
31 Jan - 02:19:09 10° WNW 02:24:21 72° N 02:33:28 10° E visible
31 Jan - 04:42:59 10° W 04:50:19 69° NNW 05:04:59 10° ENE visible
31 Jan - 07:07:51 10° W 07:17:59 41° NNW 07:36:00 10° NE daylight
31 Jan - 09:38:12 10° WNW 09:47:28 17° NW 09:59:16 10° N daylight
31 Jan - 22:48:18 10° NNE 22:49:26 11° NE 22:50:35 10° NE night (unlit)
01 Feb - 01:08:50 10° WNW 01:13:21 54° NNE 01:20:07 10° E visible
01 Feb - 03:32:29 10° W 03:38:32 76° N 03:50:09 10° ENE visible
01 Feb - 05:56:41 10° W 06:05:15 51° NNW 06:21:41 10° NE visible
01 Feb - 08:23:38 10° W 08:33:51 24° NNW 08:49:04 10° NNE daylight
01 Feb - 23:58:42 10° NW 00:02:39 32° NNE 00:07:29 10° E night (unlit)
02 Feb - 02:22:03 10° W 02:27:10 75° N 02:36:03 10° E visible
02 Feb - 04:45:57 10° W 04:53:04 61° NNW 05:07:02 10° ENE visible
02 Feb - 07:11:12 10° W 07:20:40 33° NNW 07:36:35 10° NNE daylight
02 Feb - 09:47:15 10° NW 09:50:10 10° NW 09:53:19 10° NNW daylight
02 Feb - 22:49:05 10° NNW 22:52:01 17° NNE 22:55:01 10° ENE visible
03 Feb - 01:11:37 10° WNW 01:16:08 63° NNE 01:22:50 10° E visible
03 Feb - 03:35:25 10° W 03:41:21 70° N 03:52:32 10° ENE visible
03 Feb - 05:59:48 10° W 06:07:58 41° NNW 06:22:59 10° NE visible
03 Feb - 08:28:18 10° WNW 08:36:33 18° NNW 08:47:47 10° N daylight
04 Feb - 00:01:12 10° NW 00:05:22 42° NNE 00:10:25 10° E night (unlit)
04 Feb - 02:24:58 10° W 02:30:01 74° N 02:38:38 10° E visible
04 Feb - 04:48:57 10° W 04:55:50 51° NNW 05:08:53 10° NE visible
04 Feb - 07:14:55 10° WNW 07:23:25 25° NNW 07:36:39 10° NNE daylight
04 Feb - 22:50:56 10° NNW 22:54:41 24° NNE 22:58:26 10° E visible
05 Feb - 01:14:29 10° WNW 01:18:58 69° N 01:25:32 10° E visible
05 Feb - 03:38:23 10° W 03:44:10 61° NNW 03:54:49 10° ENE visible
05 Feb - 06:03:06 10° W 06:10:46 32° NNW 06:23:55 10° NNE visible
05 Feb - 08:35:28 10° NW 08:39:23 11° NNW 08:43:51 10° NNW daylight
05 Feb - 21:41:14 10° N 21:43:51 14° NNE 21:46:13 10° ENE visible
06 Feb - 00:03:51 10° WNW 00:08:09 52° NNE 00:13:15 10° E night (unlit)
06 Feb - 02:27:54 10° W 02:32:52 70° N 02:41:11 10° ENE visible
06 Feb - 04:52:03 10° W 04:58:38 41° NNW 05:10:31 10° NE visible
06 Feb - 07:19:20 10° WNW 07:26:14 18° NNW 07:35:53 10° N daylight
06 Feb - 22:53:09 10° NW 22:57:25 34° NNE 23:01:33 10° E visible
